When you browse on this site, cookies collect data to enhance your experience and personalize the content and advertising you see.
Visit our Privacy Policy to learn more. By continuing to use the site, you agree to this use of cookies and data.
EN

Hourly Weather Tulata

Today, 9 August, Sunday

Time Temperature Precipitation Wind Pressure Humidity
00:00 +15°C° 0 mm 1 mps 706 mmHg 88%
01:00 +14°C° 0 mm 1 mps 705 mmHg 87%
02:00 +14°C° 0 mm 1 mps 705 mmHg 87%
03:00 +14°C° 0 mm 1 mps 705 mmHg 87%
04:00 +14°C° 0 mm 1 mps 705 mmHg 85%
05:00 +14°C° 0 mm 1 mps 705 mmHg 84%
06:00 +15°C° 0 mm 1 mps 705 mmHg 83%
07:00 +18°C° 0 mm 1 mps 705 mmHg 75%
08:00 +21°C° 0 mm 1 mps 705 mmHg 68%
09:00 +21°C° 0 mm 0 mps 705 mmHg 60%
10:00 +25°C° 0 mm 1 mps 705 mmHg 57%
11:00 +26°C° 0 mm 1 mps 705 mmHg 53%
12:00 +27°C° 0 mm 1 mps 705 mmHg 50%
13:00 +27°C° 0 mm 1 mps 705 mmHg 49%
14:00 +28°C° 0 mm 1 mps 705 mmHg 49%
15:00 +28°C° 0 mm 1 mps 705 mmHg 48%
16:00 +28°C° 0 mm 1 mps 705 mmHg 53%
17:00 +27°C° 0 mm 1 mps 705 mmHg 57%
18:00 +27°C° 0 mm 1 mps 705 mmHg 62%
19:00 +24°C° 0 mm 1 mps 704 mmHg 67%
20:00 +22°C° 0 mm 1 mps 704 mmHg 72%
21:00 +20°C° 0 mm 1 mps 704 mmHg 76%
22:00 +19°C° 0 mm 1 mps 704 mmHg 77%
23:00 +19°C° 0 mm 1 mps 704 mmHg 77%

Tomorrow, 10 August, Monday

Time Temperature Precipitation Wind Pressure Humidity
00:00 +17°C° 0 mm 2 mps 704 mmHg 78%
01:00 +17°C° 0 mm 2 mps 704 mmHg 78%
02:00 +17°C° 0 mm 2 mps 704 mmHg 77%
03:00 +17°C° 0 mm 2 mps 703 mmHg 77%
04:00 +17°C° 0 mm 2 mps 704 mmHg 76%
05:00 +17°C° 0 mm 2 mps 704 mmHg 75%
06:00 +17°C° 0 mm 2 mps 704 mmHg 74%
07:00 +20°C° 0 mm 2 mps 704 mmHg 67%
08:00 +23°C° 0 mm 1 mps 705 mmHg 61%
09:00 +26°C° 0 mm 1 mps 705 mmHg 54%
10:00 +27°C° 0 mm 2 mps 705 mmHg 50%
11:00 +28°C° 0 mm 2 mps 705 mmHg 46%
12:00 +29°C° 0 mm 2 mps 706 mmHg 42%
13:00 +28°C° 0.1 mm 2 mps 705 mmHg 46%
14:00 +27°C° 0.1 mm 2 mps 705 mmHg 51%
15:00 +27°C° 0.1 mm 1 mps 705 mmHg 55%
16:00 +26°C° 0.1 mm 1 mps 705 mmHg 58%
17:00 +26°C° 0.1 mm 1 mps 705 mmHg 61%
18:00 +25°C° 0.1 mm 1 mps 705 mmHg 64%
19:00 +23°C° 0.3 mm 1 mps 704 mmHg 71%
20:00 +20°C° 0.3 mm 2 mps 704 mmHg 78%
21:00 +18°C° 0.3 mm 2 mps 704 mmHg 85%
22:00 +17°C° 0.2 mm 2 mps 704 mmHg 85%
23:00 +17°C° 0.2 mm 2 mps 704 mmHg 85%

Day after tomorrow, 11 August, Tuesday

Time Temperature Precipitation Wind Pressure Humidity
00:00 +16°C° 0.2 mm 2 mps 703 mmHg 86%
01:00 +17°C° 0 mm 2 mps 703 mmHg 84%
02:00 +17°C° 0 mm 2 mps 703 mmHg 82%
03:00 +17°C° 0 mm 2 mps 703 mmHg 81%
04:00 +17°C° 0 mm 2 mps 703 mmHg 80%
05:00 +17°C° 0 mm 2 mps 703 mmHg 79%
06:00 +17°C° 0 mm 2 mps 703 mmHg 79%
07:00 +20°C° 0 mm 2 mps 703 mmHg 71%
08:00 +24°C° 0 mm 2 mps 703 mmHg 63%
09:00 +26°C° 0 mm 2 mps 704 mmHg 55%
10:00 +28°C° 0 mm 2 mps 704 mmHg 49%
11:00 +29°C° 0 mm 3 mps 704 mmHg 43%
12:00 +31°C° 0 mm 3 mps 704 mmHg 37%
13:00 +31°C° 0 mm 3 mps 703 mmHg 38%
14:00 +31°C° 0 mm 3 mps 703 mmHg 40%
15:00 +31°C° 0 mm 3 mps 703 mmHg 41%
16:00 +30°C° 0 mm 3 mps 703 mmHg 45%
17:00 +29°C° 0 mm 3 mps 703 mmHg 48%
18:00 +28°C° 0 mm 3 mps 703 mmHg 52%
19:00 +25°C° 0.1 mm 2 mps 703 mmHg 59%
20:00 +23°C° 0.1 mm 2 mps 702 mmHg 66%
21:00 +20°C° 0.1 mm 1 mps 702 mmHg 73%
22:00 +18°C° 0 mm 2 mps 702 mmHg 72%
23:00 +18°C° 0 mm 2 mps 701 mmHg 70%

12 August, Wednesday

Time Temperature Precipitation Wind Pressure Humidity
00:00 +17°C° 0 mm 3 mps 701 mmHg 69%
01:00 +17°C° 0 mm 3 mps 701 mmHg 71%
02:00 +16°C° 0 mm 3 mps 701 mmHg 72%
03:00 +16°C° 0 mm 3 mps 701 mmHg 73%
04:00 +16°C° 0 mm 3 mps 701 mmHg 73%
05:00 +16°C° 0 mm 3 mps 702 mmHg 74%
06:00 +16°C° 0 mm 3 mps 702 mmHg 74%
07:00 +18°C° 0 mm 3 mps 702 mmHg 66%
08:00 +21°C° 0 mm 4 mps 703 mmHg 58%
09:00 +23°C° 0 mm 4 mps 703 mmHg 50%
10:00 +25°C° 0 mm 4 mps 703 mmHg 47%
11:00 +26°C° 0 mm 4 mps 703 mmHg 44%
12:00 +27°C° 0 mm 5 mps 703 mmHg 41%
13:00 +26°C° 0 mm 5 mps 703 mmHg 42%
14:00 +26°C° 0 mm 4 mps 703 mmHg 44%
15:00 +26°C° 0 mm 4 mps 703 mmHg 45%
16:00 +25°C° 0 mm 3 mps 703 mmHg 49%
17:00 +25°C° 0 mm 2 mps 703 mmHg 52%
18:00 +25°C° 0 mm 1 mps 702 mmHg 56%
19:00 +23°C° 0 mm 1 mps 702 mmHg 58%
20:00 +21°C° 0 mm 1 mps 702 mmHg 61%
21:00 +19°C° 0 mm 1 mps 702 mmHg 63%
22:00 +18°C° 0 mm 1 mps 702 mmHg 65%
23:00 +17°C° 0 mm 2 mps 702 mmHg 68%

13 August, Thursday

Time Temperature Precipitation Wind Pressure Humidity
00:00 +17°C° 0 mm 2 mps 702 mmHg 70%
01:00 +16°C° 0 mm 2 mps 702 mmHg 71%
02:00 +15°C° 0 mm 2 mps 702 mmHg 72%
03:00 +15°C° 0 mm 2 mps 702 mmHg 73%
04:00 +15°C° 0.1 mm 2 mps 702 mmHg 75%
05:00 +15°C° 0.1 mm 2 mps 702 mmHg 77%
06:00 +15°C° 0.1 mm 2 mps 702 mmHg 79%
07:00 +16°C° 0.2 mm 2 mps 703 mmHg 76%
08:00 +18°C° 0.2 mm 2 mps 703 mmHg 74%
09:00 +20°C° 0.2 mm 2 mps 703 mmHg 71%
10:00 +19°C° 0.5 mm 2 mps 703 mmHg 76%
11:00 +19°C° 0.5 mm 2 mps 703 mmHg 80%
12:00 +19°C° 0.5 mm 2 mps 703 mmHg 84%
13:00 +19°C° 0.6 mm 2 mps 703 mmHg 85%
14:00 +19°C° 0.6 mm 2 mps 703 mmHg 85%
15:00 +19°C° 0.6 mm 2 mps 703 mmHg 86%
16:00 +18°C° 0.9 mm 2 mps 703 mmHg 87%
17:00 +18°C° 0.9 mm 2 mps 703 mmHg 88%
18:00 +18°C° 0.9 mm 2 mps 703 mmHg 89%
19:00 +17°C° 0.9 mm 2 mps 703 mmHg 91%
20:00 +16°C° 0.9 mm 2 mps 703 mmHg 92%
21:00 +14°C° 0.9 mm 3 mps 704 mmHg 93%
22:00 +15°C° 0.5 mm 2 mps 704 mmHg 93%
23:00 +15°C° 0.5 mm 2 mps 704 mmHg 92%

14 August, Friday

Time Temperature Precipitation Wind Pressure Humidity
00:00 +15°C° 0.5 mm 2 mps 704 mmHg 92%
01:00 +15°C° 0.2 mm 2 mps 704 mmHg 92%
02:00 +15°C° 0.2 mm 2 mps 704 mmHg 92%
03:00 +15°C° 0.2 mm 2 mps 704 mmHg 92%
04:00 +15°C° 0.2 mm 2 mps 704 mmHg 92%
05:00 +15°C° 0.2 mm 2 mps 704 mmHg 93%
06:00 +15°C° 0.2 mm 2 mps 705 mmHg 93%
07:00 +16°C° 0.4 mm 2 mps 705 mmHg 92%
08:00 +17°C° 0.4 mm 2 mps 705 mmHg 91%
09:00 +18°C° 0.4 mm 2 mps 705 mmHg 89%
10:00 +18°C° 0.9 mm 2 mps 705 mmHg 88%
11:00 +19°C° 0.9 mm 3 mps 705 mmHg 86%
12:00 +20°C° 0.9 mm 3 mps 705 mmHg 84%
13:00 +20°C° 1.1 mm 3 mps 705 mmHg 84%
14:00 +20°C° 1.1 mm 3 mps 705 mmHg 84%
15:00 +20°C° 1.1 mm 2 mps 705 mmHg 84%
16:00 +20°C° 0.9 mm 2 mps 705 mmHg 86%
17:00 +20°C° 0.9 mm 2 mps 705 mmHg 88%
18:00 +19°C° 0.9 mm 2 mps 705 mmHg 91%
19:00 +19°C° 0.4 mm 1 mps 705 mmHg 91%
20:00 +16°C° 0.4 mm 1 mps 705 mmHg 92%
21:00 +15°C° 0.4 mm 1 mps 705 mmHg 92%
22:00 +14°C° 0.1 mm 1 mps 705 mmHg 92%
23:00 +14°C° 0.1 mm 1 mps 705 mmHg 92%
Show more